Temp
-11 -10 -10 -11 -11 -11 -11 -11 -11 -11 -11 -11 -11 -11 -11 -11 -11 -10 -11 -10 -10 -10 -10 -10 -11 -10 -9 -9 -9 -9 -9 -9 -9 -9 -9 -9 -9 -9 -9 -9 -9 -9 -10 -10 -10 -10 -10
-11 -11 -11 -11 -11 -11 -11 -11 -11 -12 -12 -12 -12 -12 -12 -11 -11 -11 -11 -11 -10 -10 -11 -11 -11 -10 -10 -10 -10 -10 -10 -9 -9 -9 -9 -9 -9 -9 -9 -9 -9 -9 -9 -9 -10 -10 -10
-11 -11 -11 -11 -11 -11 -11 -11 -11 -11 -12 -12 -12 -12 -12 -12 -11 -11 -11 -11 -11 -11 -11 -11 -10 -10 -10 -10 -10 -10 -10 -9 -9 -9 -9 -9 -9 -9 -9 -9 -9 -9 -9 -9 -9 -9 -10
-11 -11 -11 -12 -12 -12 -12 -12 -12 -11 -12 -12 -12 -12 -12 -12 -12 -11 -11 -11 -11 -11 -11 -11 -11 -11 -10 -10 -10 -10 -10 -10 -10 -10 -10 -10 -10 -9 -9 -9 -9 -9 -10 -9 -9 -9 -9
-11 -11 -11 -11 -11 -12 -12 -12 -12 -12 -12 -12 -12 -12 -12 -12 -12 -12 -12 -11 -11 -12 -12 -11 -11 -11 -11 -10 -10 -10 -10 -10 -10 -10 -10 -10 -10 -10 -10 -10 -10 -10 -10 -10 -10 -10 -10
-11 -11 -11 -11 -12 -11 -12 -12 -13 -13 -13 -12 -12 -12 -12 -12 -12 -12 -12 -12 -12 -12 -12 -12 -12 -11 -11 -11 -10 -10 -10 -10 -10 -10 -10 -10 -10 -10 -10 -10 -10 -10 -10 -10 -10 -10 -10
-11 -11 -12 -11 -11 -12 -12 -12 -13 -13 -13 -13 -13 -13 -13 -13 -13 -13 -13 -13 -13 -13 -13 -12 -12 -12 -11 -11 -11 -10 -10 -10 -10 -10 -10 -10 -10 -10 -10 -10 -10 -10 -10 -10 -10 -10 -10
-11 -11 -11 -12 -12 -12 -12 -12 -12 -13 -13 -13 -13 -13 -13 -13 -13 -13 -13 -13 -13 -13 -13 -13 -12 -12 -11 -11 -10 -10 -10 -10 -10 -10 -10 -10 -10 -10 -10 -10 -10 -10 -10 -10 -10 -10 -10
-11 -11 -11 -11 -11 -12 -12 -12 -12 -12 -13 -13 -13 -13 -13 -13 -13 -13 -13 -14 -13 -13 -13 -13 -12 -12 -11 -10 -10 -10 -10 -10 -10 -10 -10 -10 -10 -10 -10 -10 -10 -10 -10 -10 -10 -11 -11
-10 -10 -11 -11 -11 -11 -11 -12 -12 -12 -12 -13 -13 -13 -13 -13 -13 -13 -13 -13 -13 -13 -12 -12 -12 -11 -11 -11 -10 -10 -10 -10 -10 -10 -10 -10 -10 -10 -10 -11 -11 -11 -11 -11 -11 -11 -10
-11 -11 -11 -11 -11 -12 -11 -12 -12 -12 -12 -12 -12 -13 -14 -13 -13 -14 -13 -13 -13 -13 -12 -12 -12 -11 -11 -11 -11 -10 -10 -10 -10 -10 -10 -10 -10 -11 -11 -11 -11 -11 -11 -11 -11 -11 -10
-11 -11 -11 -12 -11 -11 -12 -12 -12 -12 -12 -13 -12 -13 -13 -14 -13 -13 -14 -13 -13 -13 -12 -12 -12 -12 -11 -11 -11 -11 -11 -11 -11 -11 -11 -11 -11 -11 -11 -11 -11 -11 -11 -11 -11 -11 -10
-12 -11 -11 -11 -11 -12 -12 -12 -12 -12 -12 -12 -13 -13 -13 -13 -14 -13 -13 -13 -13 -12 -12 -12 -12 -12 -12 -12 -12 -12 -11 -11 -11 -11 -12 -12 -11 -11 -11 -11 -11 -11 -11 -11 -11 -11 -11
-12 -12 -12 -11 -11 -12 -12 -13 -13 -13 -13 -12 -13 -13 -13 -13 -13 -14 -13 -13 -12 -12 -12 -13 -12 -12 -12 -12 -12 -12 -12 -12 -12 -12 -12 -12 -12 -12 -12 -12 -12 -11 -12 -12 -11 -11 -11
-13 -13 -13 -13 -12 -12 -12 -13 -14 -14 -13 -13 -12 -13 -13 -13 -13 -13 -13 -12 -11 -12 -12 -13 -13 -13 -13 -13 -12 -12 -12 -12 -12 -12 -12 -12 -12 -12 -12 -12 -12 -12 -12 -12 -12 -12 -12
-13 -13 -13 -13 -13 -13 -13 -13 -14 -13 -13 -14 -13 -12 -12 -13 -13 -13 -12 -12 -12 -12 -12 -13 -13 -13 -13 -13 -13 -13 -13 -13 -13 -13 -13 -13 -12 -12 -12 -13 -13 -13 -13 -13 -13 -13 -12
-13 -14 -14 -13 -13 -14 -14 -14 -14 -13 -14 -14 -15 -14 -13 -13 -13 -13 -12 -12 -13 -13 -13 -12 -12 -12 -13 -13 -13 -13 -13 -13 -13 -13 -13 -13 -13 -13 -13 -13 -13 -13 -13 -13 -13 -13 -13
-13 -14 -15 -15 -14 -15 -15 -14 -15 -14 -14 -14 -14 -14 -13 -14 -14 -13 -12 -13 -13 -13 -13 -13 -13 -13 -13 -13 -13 -13 -13 -14 -13 -14 -13 -13 -13 -13 -13 -13 -13 -13 -13 -13 -13 -13 -13
-14 -15 -15 -16 -16 -15 -16 -16 -15 -16 -15 -15 -14 -14 -14 -14 -14 -13 -13 -13 -13 -13 -13 -13 -13 -13 -13 -13 -13 -13 -13 -13 -14 -14 -13 -14 -13 -13 -13 -13 -14 -14 -13 -13 -13 -13 -13
-16 -17 -18 -18 -18 -17 -18 -17 -17 -18 -16 -16 -15 -15 -14 -14 -14 -13 -13 -13 -13 -13 -13 -13 -13 -13 -13 -13 -13 -13 -13 -13 -14 -14 -14 -14 -13 -13 -14 -14 -14 -14 -14 -14 -14 -13 -14
-19 -19 -20 -21 -20 -20 -19 -19 -19 -18 -17 -17 -16 -16 -15 -15 -14 -14 -14 -13 -14 -14 -14 -14 -13 -13 -14 -13 -13 -13 -13 -13 -14 -14 -14 -14 -13 -14 -14 -14 -14 -13 -13 -14 -14 -14 -14
-21 -22 -22 -22 -23 -24 -23 -21 -20 -19 -19 -19 -18 -17 -16 -16 -15 -15 -15 -14 -14 -14 -14 -14 -14 -14 -13 -13 -14 -13 -14 -14 -14 -14 -14 -14 -14 -14 -14 -14 -14 -13 -13 -14 -14 -15 -15
-23 -23 -23 -23 -23 -25 -25 -24 -23 -22 -20 -18 -19 -19 -18 -17 -16 -15 -15 -15 -15 -15 -15 -14 -14 -14 -14 -14 -14 -14 -14 -14 -14 -14 -14 -14 -14 -14 -14 -14 -14 -13 -14 -15 -15 -16 -16
-23 -24 -23 -23 -23 -25 -26 -25 -24 -23 -22 -20 -18 -20 -20 -18 -17 -16 -16 -16 -15 -15 -15 -15 -15 -14 -14 -14 -14 -14 -15 -14 -14 -14 -14 -14 -14 -14 -14 -15 -15 -14 -14 -15 -16 -16 -17
-24 -24 -24 -24 -24 -25 -26 -26 -25 -24 -23 -22 -20 -20 -20 -19 -18 -17 -17 -16 -16 -16 -16 -16 -16 -15 -15 -15 -15 -15 -15 -15 -15 -15 -15 -15 -15 -15 -16 -16 -15 -15 -15 -16 -16 -16 -17
-24 -25 -25 -25 -25 -26 -26 -26 -26 -25 -24 -23 -22 -21 -21 -20 -19 -18 -18 -18 -17 -18 -17 -16 -16 -17 -17 -16 -16 -16 -16 -16 -16 -16 -16 -16 -16 -16 -16 -16 -16 -15 -16 -16 -17 -16 -18
-26 -26 -26 -25 -26 -27 -27 -26 -26 -26 -25 -24 -23 -22 -21 -20 -20 -19 -19 -18 -18 -18 -18 -17 -17 -17 -17 -17 -17 -17 -16 -16 -16 -16 -16 -16 -17 -17 -17 -17 -16 -17 -18 -18 -18 -18 -18
-27 -27 -26 -26 -27 -27 -27 -27 -27 -26 -26 -25 -24 -24 -22 -21 -20 -19 -19 -19 -19 -18 -18 -18 -18 -18 -18 -18 -18 -18 -18 -18 -18 -17 -17 -17 -18 -17 -18 -18 -18 -19 -19 -20 -19 -19 -20
-27 -27 -27 -27 -28 -27 -27 -27 -27 -26 -26 -26 -25 -24 -23 -22 -21 -20 -20 -20 -19 -19 -19 -19 -19 -19 -19 -18 -19 -19 -19 -18 -18 -18 -18 -18 -18 -18 -19 -19 -19 -20 -20 -20 -20 -20 -20
Height
5838 5837 5838 5841 5843 5843 5843 5843 5843 5842 5842 5841 5840 5839 5838 5837 5836 5835 5836 5835 5833 5833 5832 5831 5831 5833 5835 5837 5838 5839 5840 5841 5841 5842 5842 5843 5843 5843 5842 5840 5840 5839 5838 5837 5836 5836 5836
5836 5837 5837 5836 5838 5840 5841 5841 5840 5840 5839 5839 5837 5837 5836 5835 5834 5833 5832 5832 5830 5830 5830 5829 5829 5830 5832 5835 5836 5837 5838 5838 5839 5840 5840 5841 5841 5841 5840 5840 5839 5838 5837 5836 5835 5835 5834
5833 5834 5834 5835 5834 5834 5836 5837 5838 5838 5837 5836 5836 5835 5833 5832 5831 5831 5830 5829 5828 5827 5827 5827 5827 5828 5830 5832 5832 5834 5835 5836 5837 5838 5838 5838 5839 5839 5838 5838 5837 5836 5835 5834 5834 5833 5833
5829 5829 5830 5831 5832 5832 5831 5832 5833 5833 5833 5833 5832 5830 5830 5829 5828 5827 5827 5826 5825 5825 5825 5825 5825 5826 5827 5828 5828 5830 5831 5832 5833 5834 5835 5835 5836 5836 5836 5835 5834 5833 5833 5831 5830 5829 5828
5826 5826 5826 5827 5827 5828 5829 5827 5827 5828 5828 5828 5827 5826 5825 5825 5824 5823 5823 5823 5822 5821 5821 5821 5822 5822 5823 5824 5825 5826 5827 5828 5829 5830 5831 5831 5832 5832 5832 5831 5831 5829 5828 5827 5826 5825 5824
5822 5823 5822 5822 5822 5823 5823 5824 5823 5822 5822 5822 5822 5821 5821 5820 5819 5819 5819 5819 5819 5817 5816 5816 5816 5818 5819 5819 5820 5820 5821 5822 5824 5825 5826 5826 5826 5826 5826 5825 5825 5824 5823 5822 5821 5821 5819
5818 5817 5818 5818 5817 5816 5817 5817 5818 5817 5816 5816 5816 5816 5815 5814 5814 5813 5814 5813 5814 5814 5811 5811 5811 5811 5812 5813 5814 5815 5816 5817 5818 5819 5819 5819 5820 5820 5819 5819 5819 5818 5818 5818 5816 5815 5814
5809 5810 5811 5811 5812 5811 5810 5810 5810 5811 5810 5810 5809 5810 5809 5809 5808 5808 5807 5806 5806 5806 5806 5805 5805 5805 5805 5806 5808 5809 5810 5811 5811 5812 5812 5813 5813 5813 5813 5812 5813 5812 5812 5811 5811 5809 5809
5802 5802 5802 5804 5805 5804 5804 5804 5803 5804 5803 5803 5803 5802 5802 5803 5803 5802 5800 5799 5799 5799 5799 5800 5798 5798 5799 5800 5801 5801 5802 5803 5804 5805 5805 5806 5807 5806 5806 5806 5806 5806 5805 5804 5805 5804 5803
5794 5793 5794 5794 5795 5796 5796 5797 5797 5797 5796 5796 5795 5796 5794 5795 5797 5796 5794 5793 5793 5793 5792 5794 5792 5793 5794 5793 5794 5794 5794 5796 5796 5798 5798 5799 5800 5800 5800 5800 5800 5800 5799 5799 5798 5798 5798
5786 5786 5785 5784 5786 5787 5787 5788 5789 5790 5790 5790 5789 5789 5788 5787 5788 5789 5788 5787 5787 5787 5786 5789 5788 5788 5788 5789 5790 5789 5789 5790 5791 5792 5794 5795 5794 5794 5794 5794 5794 5795 5793 5792 5791 5790 5789
5777 5777 5777 5777 5777 5777 5778 5779 5780 5782 5782 5783 5783 5783 5782 5782 5780 5781 5782 5780 5781 5781 5780 5783 5783 5782 5783 5783 5784 5784 5785 5786 5786 5786 5787 5788 5788 5788 5788 5788 5788 5789 5787 5785 5783 5782 5780
5768 5768 5767 5767 5768 5768 5767 5768 5770 5772 5773 5774 5775 5776 5776 5775 5775 5773 5774 5775 5773 5771 5778 5778 5777 5778 5778 5778 5778 5779 5780 5780 5781 5782 5782 5781 5782 5782 5783 5783 5782 5781 5780 5778 5775 5774 5772
5755 5756 5756 5757 5756 5757 5757 5758 5758 5760 5762 5765 5765 5767 5767 5768 5767 5766 5765 5766 5764 5770 5771 5772 5772 5771 5772 5772 5773 5773 5773 5774 5774 5774 5775 5775 5776 5776 5776 5776 5774 5773 5773 5771 5764 5764 5763
5740 5741 5742 5744 5746 5746 5746 5747 5748 5749 5751 5752 5754 5756 5758 5758 5759 5758 5757 5754 5761 5764 5764 5766 5764 5764 5766 5766 5766 5766 5766 5767 5767 5768 5768 5767 5768 5768 5768 5768 5768 5766 5764 5763 5759 5756 5752
5724 5724 5727 5729 5730 5731 5733 5734 5737 5738 5739 5740 5740 5743 5746 5747 5748 5748 5747 5747 5751 5755 5756 5757 5757 5757 5759 5760 5759 5759 5759 5761 5760 5760 5760 5760 5758 5760 5760 5760 5760 5757 5756 5755 5752 5746 5742
5707 5708 5709 5709 5710 5715 5717 5720 5722 5724 5726 5726 5727 5727 5730 5732 5735 5735 5733 5740 5746 5746 5745 5745 5746 5747 5750 5751 5751 5752 5749 5754 5752 5752 5751 5751 5750 5752 5751 5752 5749 5748 5746 5745 5742 5738 5734
5685 5686 5689 5689 5692 5694 5698 5702 5706 5710 5712 5711 5712 5712 5715 5719 5720 5721 5723 5729 5734 5738 5736 5734 5734 5736 5738 5741 5741 5740 5741 5743 5744 5743 5742 5741 5739 5739 5741 5740 5739 5738 5736 5734 5729 5728 5723
5658 5657 5658 5663 5668 5672 5677 5683 5688 5692 5694 5693 5693 5697 5699 5703 5703 5707 5711 5715 5718 5722 5725 5724 5723 5725 5726 5728 5728 5729 5730 5732 5733 5732 5730 5731 5727 5726 5727 5730 5729 5726 5724 5721 5718 5714 5711
5628 5629 5630 5633 5638 5643 5650 5657 5667 5672 5676 5677 5676 5678 5683 5686 5689 5692 5695 5699 5703 5706 5709 5710 5711 5711 5714 5715 5717 5717 5718 5719 5720 5720 5719 5716 5715 5716 5717 5714 5714 5713 5711 5708 5704 5702 5702
5606 5606 5606 5606 5612 5619 5627 5635 5644 5650 5658 5659 5659 5659 5663 5669 5674 5677 5678 5684 5687 5691 5692 5695 5697 5700 5701 5702 5703 5705 5705 5706 5707 5706 5705 5703 5702 5703 5703 5702 5700 5699 5697 5693 5691 5691 5684
5589 5590 5591 5591 5593 5597 5604 5611 5619 5632 5638 5638 5643 5645 5648 5652 5657 5661 5662 5670 5672 5673 5676 5679 5683 5685 5685 5688 5690 5691 5691 5691 5691 5692 5690 5689 5688 5689 5688 5686 5686 5685 5683 5681 5680 5675 5671
5576 5577 5578 5580 5581 5584 5589 5595 5601 5607 5615 5626 5628 5632 5631 5636 5640 5644 5649 5653 5657 5658 5660 5662 5666 5667 5668 5672 5673 5673 5673 5674 5675 5676 5674 5674 5674 5673 5672 5672 5669 5669 5671 5668 5665 5661 5656
5562 5563 5565 5567 5569 5572 5577 5582 5587 5592 5597 5605 5612 5617 5617 5618 5624 5630 5634 5637 5639 5644 5645 5646 5647 5650 5653 5655 5656 5657 5657 5657 5658 5660 5660 5660 5659 5656 5656 5656 5652 5657 5655 5653 5649 5646 5640
5546 5548 5551 5554 5557 5560 5565 5570 5575 5578 5582 5589 5593 5595 5600 5606 5609 5617 5620 5624 5625 5627 5632 5634 5634 5634 5636 5638 5639 5639 5641 5642 5645 5646 5647 5647 5644 5641 5639 5639 5641 5641 5638 5635 5632 5628 5622
5530 5532 5536 5539 5544 5548 5554 5559 5564 5567 5570 5575 5578 5580 5584 5593 5600 5603 5606 5609 5613 5614 5618 5620 5622 5622 5623 5624 5622 5623 5627 5629 5629 5632 5634 5633 5630 5628 5626 5623 5625 5627 5623 5620 5615 5614 5609
5517 5519 5523 5527 5532 5537 5543 5550 5554 5557 5559 5562 5566 5569 5570 5576 5585 5589 5592 5596 5599 5603 5605 5607 5607 5609 5611 5611 5611 5612 5613 5614 5614 5617 5620 5617 5615 5613 5609 5606 5610 5609 5605 5602 5599 5599 5591
5507 5509 5512 5516 5521 5527 5534 5540 5545 5548 5552 5553 5556 5559 5561 5564 5569 5575 5579 5584 5587 5590 5593 5594 5595 5596 5599 5599 5599 5600 5600 5601 5600 5602 5603 5602 5600 5600 5595 5592 5594 5594 5591 5588 5584 5579 5576
5499 5501 5503 5506 5512 5519 5525 5531 5536 5539 5543 5544 5548 5548 5551 5555 5561 5563 5566 5571 5576 5580 5580 5581 5583 5584 5583 5585 5586 5586 5587 5586 5588 5588 5589 5588 5586 5585 5584 5580 5578 5576 5572 5569 5566 5563 5561
Wind_Speed
13 13 13 14 15 16 17 16 15 14 15 15 15 15 15 15 14 13 12 13 12 11 10 10 20 24 23 20 18 16 15 12 9 8 7 7 6 4 4 4 3 2 3 6 6 7 7
14 16 17 17 17 19 20 21 20 19 18 17 17 17 16 15 14 14 13 13 13 13 11 10 18 25 25 22 20 18 17 14 12 11 10 10 9 8 7 7 6 7 6 6 8 9 9
18 18 18 19 20 20 21 23 24 24 23 20 20 19 18 17 17 16 15 15 14 15 14 12 15 24 26 25 23 21 19 17 16 15 14 13 12 12 12 11 11 11 11 10 10 11 11
17 19 22 21 22 23 23 23 25 27 27 26 23 22 20 20 20 19 18 18 17 17 16 17 16 23 27 27 27 26 24 22 21 19 18 17 16 16 16 16 16 15 15 16 15 14 14
16 17 21 24 26 25 26 25 26 28 29 29 29 26 23 22 22 21 20 20 21 22 22 22 21 21 27 30 28 29 29 28 26 25 23 22 21 20 20 20 20 20 19 18 18 17 17
17 19 19 22 26 27 29 31 29 29 31 33 32 29 27 24 24 23 22 21 25 28 25 23 25 26 27 29 32 33 33 32 30 28 27 26 26 25 25 25 24 23 23 22 21 19 19
23 23 23 23 23 25 26 30 35 33 32 32 33 32 30 28 26 27 25 24 26 27 25 24 25 28 29 32 33 34 35 34 33 33 32 31 30 29 28 26 24 23 22 20 21 22 21
19 23 28 27 27 27 26 26 29 36 36 35 34 35 34 33 30 30 30 28 28 26 25 27 29 31 32 33 33 32 33 33 33 32 30 29 27 27 24 22 20 19 19 19 20 21 21
25 24 21 26 31 31 30 30 27 29 34 36 39 36 35 35 35 35 34 29 28 28 28 25 26 26 27 30 31 32 33 34 33 31 29 28 26 24 22 20 19 18 18 20 20 21 21
27 26 27 27 29 29 34 34 31 31 30 32 33 36 34 34 36 32 29 30 28 29 28 23 24 21 22 22 22 23 25 26 26 26 26 23 21 21 19 18 18 17 19 20 21 22 24
34 33 31 31 32 31 30 36 36 35 33 30 32 32 36 31 33 33 31 30 29 30 27 22 21 19 20 20 18 17 16 17 19 20 21 20 20 19 18 17 18 17 21 23 25 27 28
37 39 38 38 38 37 34 35 37 39 38 34 33 33 33 35 32 34 34 31 31 31 28 20 20 19 20 21 20 19 19 19 20 20 21 21 21 20 18 19 19 20 22 26 28 30 33
42 41 43 43 44 43 41 38 40 42 42 41 38 37 35 34 35 32 33 35 36 34 26 25 25 23 23 23 23 23 23 23 22 22 22 23 22 21 20 20 21 22 25 30 34 33 34
45 48 47 49 48 47 47 46 43 46 44 43 43 41 39 39 37 37 34 37 40 31 30 28 28 27 29 28 27 27 26 26 26 25 26 26 24 23 22 23 24 27 30 31 38 38 37
50 50 52 54 54 53 51 51 51 50 49 44 43 47 44 45 44 40 40 39 33 31 33 31 32 34 30 28 29 29 29 28 28 28 29 28 28 27 26 27 28 31 32 34 38 41 43
59 58 57 59 59 58 57 56 54 55 56 51 45 47 49 52 50 48 47 45 37 33 34 35 36 38 35 34 35 33 31 29 29 31 32 32 33 31 30 31 32 35 35 36 37 44 45
68 69 68 68 67 66 65 62 61 58 58 56 53 54 54 54 56 55 53 49 42 39 38 40 40 41 39 38 39 36 38 32 33 34 36 36 38 36 35 35 36 38 37 39 42 46 48
80 80 78 76 77 75 73 69 66 67 63 61 62 57 58 57 60 60 57 52 47 47 45 45 44 44 44 43 44 44 44 40 38 37 38 41 44 43 41 41 40 40 41 42 45 48 51
90 91 91 88 84 83 81 77 71 67 68 63 65 65 59 63 63 63 62 59 55 51 52 52 51 49 48 49 50 49 48 46 44 42 44 43 48 48 48 44 42 43 45 46 48 52 54
89 88 88 91 91 90 86 82 77 70 58 63 65 74 68 63 57 61 65 62 61 59 57 56 56 55 54 53 51 52 51 50 48 47 47 49 51 51 49 49 46 47 48 49 52 53 51
67 67 67 68 75 83 88 84 78 75 76 44 57 64 72 66 65 60 59 65 61 64 62 60 60 59 58 57 55 55 56 54 53 53 51 52 53 52 50 48 49 51 52 54 55 56 60
50 49 49 49 54 59 65 74 79 77 71 76 57 56 67 63 63 63 60 61 61 59 59 63 64 64 62 61 61 59 59 61 59 57 59 56 53 54 53 53 55 56 58 58 58 60 62
47 46 45 43 43 48 49 51 58 67 72 75 76 48 52 55 59 62 53 54 59 58 56 58 56 60 58 59 59 59 58 58 59 59 60 60 57 56 57 57 57 58 58 58 58 61 62
51 50 47 44 44 44 45 45 46 49 60 66 75 76 54 50 59 63 55 52 56 58 51 46 52 55 55 56 60 59 53 54 55 56 56 56 57 59 59 57 58 56 58 60 62 62 63
51 51 50 47 45 44 46 45 45 46 51 54 63 61 64 53 54 61 62 63 55 57 52 51 47 51 58 56 57 53 51 51 51 49 51 53 54 55 55 56 57 60 62 64 65 65 65
47 45 45 45 44 45 46 45 43 44 45 48 52 51 51 62 49 54 54 53 55 55 53 52 50 45 40 40 44 47 50 49 49 49 51 52 53 53 55 58 61 64 65 66 65 63 61
40 40 40 43 43 45 45 43 39 40 41 40 41 46 50 53 61 55 48 54 52 47 50 51 49 44 41 41 45 50 52 52 53 53 55 56 57 56 58 61 65 63 59 61 61 62 64
31 30 32 37 42 43 43 40 37 39 37 37 40 43 44 50 53 61 58 54 54 55 52 52 51 52 48 48 46 46 45 47 50 53 55 57 58 60 64 64 63 61 60 59 60 63 63
24 26 25 31 39 40 39 37 36 36 33 33 33 37 41 40 44 45 47 47 50 56 56 55 54 51 56 52 50 52 52 50 51 58 59 60 61 62 63 62 63 62 60 60 60 62 63
Wind_Direction
249 237 237 249 256 256 255 257 261 267 271 274 274 269 265 263 260 255 257 258 257 264 280 269 216 203 200 199 200 202 204 202 204 216 227 246 255 275 308 325 345 334 261 255 261 257 254
258 254 246 240 245 254 260 265 266 266 272 280 283 278 270 267 264 262 262 259 257 257 264 266 224 209 208 209 211 211 214 213 216 226 233 246 261 271 281 285 296 302 304 288 273 265 264
261 262 257 255 248 249 257 264 269 273 273 276 279 279 274 273 271 269 265 260 256 254 254 260 236 221 213 215 220 221 223 226 228 233 240 248 256 266 271 279 284 284 287 287 284 280 277
278 259 264 264 261 259 254 259 264 268 270 273 277 281 279 272 271 269 267 260 253 255 258 254 247 234 223 220 224 229 231 233 236 242 248 254 258 266 269 274 275 279 282 284 282 284 279
294 285 268 265 265 265 265 259 259 265 269 273 276 277 276 269 271 270 268 261 259 262 265 255 246 243 233 228 231 234 237 240 243 247 255 258 260 265 270 269 272 275 278 279 274 275 273
280 288 285 277 269 270 265 268 264 264 270 273 275 274 272 267 265 269 267 261 262 267 263 253 246 243 240 239 238 238 241 245 250 253 257 261 265 270 271 271 273 272 273 275 274 274 270
279 278 279 281 279 273 274 273 269 268 266 270 273 273 271 267 263 264 267 266 266 266 259 254 248 246 243 245 245 245 248 251 255 258 261 262 265 267 270 271 270 271 271 270 272 274 272
283 293 279 275 276 276 275 274 278 268 266 268 268 271 272 269 263 263 268 269 267 265 261 258 253 251 251 250 250 251 253 253 253 256 258 259 259 263 264 266 268 267 269 269 270 269 271
265 279 274 289 287 277 274 273 275 280 271 266 266 266 269 270 269 270 271 266 265 264 264 254 249 245 244 247 248 249 249 250 250 251 253 255 257 256 256 258 261 264 269 270 272 273 275
261 266 269 269 278 279 279 275 272 273 277 275 268 266 263 268 268 268 263 263 263 264 265 253 247 239 237 237 239 242 242 242 241 243 246 246 246 247 251 253 258 264 270 276 278 279 278
261 264 261 267 266 266 272 271 274 274 273 274 277 271 266 262 265 265 260 259 259 264 260 251 239 240 233 230 231 234 232 229 230 232 234 236 239 242 244 251 259 267 273 277 281 284 284
262 264 263 262 264 263 260 262 263 267 272 272 275 274 268 264 259 260 258 255 256 257 257 251 242 240 232 233 233 234 234 232 232 232 235 236 238 239 243 253 263 269 277 282 285 286 287
260 259 262 262 263 259 257 256 259 258 262 270 273 272 271 264 257 253 256 256 254 251 247 246 245 244 238 235 236 236 238 237 238 237 239 240 243 244 249 257 264 273 278 282 282 284 288
264 260 258 259 260 258 258 254 254 254 254 264 268 268 266 268 261 256 252 255 253 251 252 246 247 248 245 244 240 240 237 241 241 240 241 242 244 246 250 255 265 272 274 277 283 285 284
266 263 261 257 259 255 256 255 256 254 251 259 270 263 263 262 263 259 255 250 256 254 252 249 248 247 246 245 244 242 244 244 244 244 244 245 246 247 249 260 269 273 273 275 280 283 285
266 262 259 259 257 254 255 252 253 257 249 257 255 257 262 261 259 257 256 254 248 247 249 249 249 249 248 250 250 248 247 246 248 248 249 252 253 248 254 267 273 270 271 278 281 282 286
268 264 260 255 253 253 251 252 246 246 251 252 252 252 251 255 256 255 254 257 256 250 245 245 246 251 253 253 253 254 255 256 254 255 257 257 253 256 260 271 272 271 276 281 282 282 287
266 265 262 257 254 251 248 246 245 245 248 249 255 253 249 248 252 255 256 255 252 254 254 251 248 248 252 254 257 256 257 259 259 258 258 257 260 261 266 271 272 271 278 281 282 285 286
267 265 261 257 252 252 250 246 244 244 246 251 248 248 249 251 248 252 257 254 253 250 252 253 253 251 250 252 254 256 258 259 260 260 258 259 260 265 268 271 271 272 278 280 284 285 289
268 266 263 260 255 250 249 246 243 239 244 250 252 250 245 245 248 251 254 255 251 251 250 252 253 254 254 255 256 257 257 257 257 257 258 259 261 265 269 273 272 274 277 280 282 287 294
269 269 268 265 260 257 255 254 249 243 238 236 246 247 246 248 246 245 249 253 252 250 250 250 252 254 255 255 256 257 258 259 258 258 259 259 262 265 267 269 271 274 277 280 285 290 290
269 268 268 266 263 258 256 256 252 247 246 246 241 242 247 247 246 248 250 250 248 248 251 252 252 254 255 257 259 260 260 259 260 259 260 263 262 265 268 270 271 273 275 281 287 289 290
265 264 264 265 265 258 253 252 252 254 244 242 249 244 244 240 242 243 241 245 251 248 248 248 250 256 255 257 260 258 257 259 260 260 260 262 265 268 269 270 272 275 280 284 286 288 288
262 261 261 262 260 254 247 244 244 242 246 242 243 249 250 240 241 242 242 243 244 252 250 251 248 251 252 255 257 259 259 261 261 261 262 265 268 269 271 273 274 281 284 285 285 287 289
262 260 259 255 254 246 243 243 242 243 240 240 241 247 250 246 239 245 244 249 251 252 258 260 256 251 251 252 253 255 260 260 263 266 268 269 270 272 273 276 280 285 287 288 289 290 291
263 258 252 249 246 239 239 242 244 244 243 241 242 243 243 239 239 239 239 244 253 261 256 254 253 261 255 257 252 254 256 261 262 265 272 272 272 274 277 278 280 284 286 287 287 289 291
258 257 250 245 239 234 236 240 244 244 248 247 244 247 247 243 240 239 242 245 250 252 250 255 261 262 263 260 261 260 260 263 267 270 270 272 274 276 275 277 281 286 286 286 286 289 289
259 257 251 239 232 233 234 238 239 244 244 246 243 245 248 245 244 247 249 247 248 244 249 257 263 266 266 267 267 267 272 272 270 271 270 270 271 273 275 278 280 282 283 283 284 284 285
250 250 252 235 227 229 231 233 238 241 241 246 249 245 249 249 242 243 247 251 252 249 255 252 257 263 263 265 270 271 267 269 272 272 269 268 270 272 273 276 277 278 279 280 280 282 284